[[{"header":{"parameterUnit":"m.s-1","parameterCategory":1,"la1":30.2991,"la2":30.254,"lo1":-89.0895,"lo2":-89.0444,"dy":0.0017,"dx":0.0017,"nx":28,"ny":28,"refTime":"2025-02-04T03:00:00:Z","depth":0,"parameterNumber":2,"parameterNumberName":"U-component_of_WINDS"},"data":[0,0,0,0,0,0,0,0,0,0,0,0,0,0,0,0,0,0,0,0,0,0,0,0,0,0,0,0,0,0,0,0,0,0,0,0,0,0,0,0,0,0,0,0,0,0,0,0,0,0,0,0,0,0,0,0,0,0,-0.7701,-0.7701,0,-0.7715,-0.7715,-0.7715,-0.7714,-0.7714,-0.7714,-0.7714,-0.773,-0.773,-0.7731,0,0,0,0,0,0,0,0,0,0,0,0,0,-0.7675,-0.7675,-0.7701,-0.7701,-0.7701,-0.7715,-0.7715,-0.7715,-0.7715,-0.7714,-0.7714,-0.7714,-0.773,-0.773,-0.7731,0,0,0,0,0,0,0,0,0,0,0,0,0,-0.7687,-0.7676,-0.7701,-0.7703,-0.7703,-0.7715,-0.7715,-0.7715,-0.7715,-0.7714,-0.7714,-0.7714,-0.7729,-0.773,-0.7731,-0.7743,0,0,-0.7734,-0.7734,0,0,0,0,0,0,0,0,-0.7687,-0.7688,-0.7702,-0.7702,-0.7703,-0.7713,-0.7712,-0.7724,-0.7715,-0.771,-0.7714,-0.7714,-0.7724,-0.7726,-0.7729,-0.7744,-0.7744,-0.7734,-0.7735,-0.7735,-0.7735,0,0,0,0,0,0,0,-0.7686,-0.7688,-0.7706,-0.7702,-0.7703,-0.7703,-0.7704,-0.7714,-0.7719,-0.7711,-0.7711,-0.7712,-0.7725,-0.7728,-0.7729,-0.7744,-0.7734,-0.7735,-0.7735,-0.7736,-0.7768,-0.7768,0,0,0,0,0,0,-0.7684,-0.7687,-0.7706,-0.7707,-0.7694,-0.7704,-0.7705,-0.771,-0.7719,-0.772,-0.7712,-0.7712,-0.7727,-0.7728,-0.773,-0.7743,-0.7735,-0.7736,-0.7736,-0.7768,-0.7768,-0.7768,0,0,0,0,0,0,-0.7684,-0.7686,-0.7705,-0.7697,-0.7699,-0.7704,-0.7709,-0.771,-0.7714,-0.772,-0.7721,-0.7715,-0.7727,-0.7729,-0.7739,-0.7744,-0.7736,-0.7737,-0.7767,-0.7768,-0.7768,-0.777,0,0,0,0,0,0,-0.7683,-0.7686,-0.769,-0.7697,-0.77,-0.7714,-0.771,-0.7711,-0.7715,-0.7715,-0.7723,-0.7724,-0.7727,-0.7738,-0.774,-0.7745,-0.7738,-0.7767,-0.7768,-0.7768,-0.777,-0.7771,-0.7772,0,0,0,0,0,-0.7682,-0.7691,-0.769,-0.7693,-0.7705,-0.7714,-0.7716,-0.7718,-0.7716,-0.772,-0.7724,-0.7724,-0.7743,-0.7739,-0.7742,-0.7747,-0.7767,-0.7767,-0.7768,-0.777,-0.7771,-0.7772,0,0,0,0,0,0,-0.7685,-0.7692,-0.7691,-0.7702,-0.7708,-0.7714,-0.772,-0.772,-0.7726,-0.7726,-0.7729,-0.7731,-0.7741,-0.7745,-0.774,-0.7758,-0.7755,-0.7756,-0.7755,-0.7756,-0.7757,-0.7755,-0.7739,0,0,0,0,0,-0.7687,-0.7694,-0.7699,-0.7709,-0.7711,-0.7715,-0.7719,-0.772,-0.7726,-0.7729,-0.7733,-0.774,-0.7747,-0.7752,-0.7759,-0.7771,-0.7772,-0.7775,-0.7776,-0.7777,-0.7778,-0.7783,-0.7785,-0.7771,-0.7771,-0.7771,0,0,-0.7691,-0.7696,-0.77,-0.7709,-0.7714,-0.772,-0.7717,-0.7725,-0.773,-0.773,-0.774,-0.7743,-0.7751,-0.7761,-0.7766,-0.7765,-0.7782,-0.7778,-0.7778,-0.7779,-0.7784,-0.7785,-0.7787,-0.7771,-0.7771,-0.7771,0,0,-0.7702,-0.7706,-0.7714,-0.7718,-0.7724,-0.7727,-0.7728,-0.7735,-0.7737,-0.7747,-0.7747,-0.7753,-0.7766,-0.777,-0.7774,-0.7786,-0.7786,-0.7788,-0.7793,-0.7798,-0.7799,-0.78,-0.7803,-0.7805,-0.7789,-0.7789,-0.7789,0,-0.7707,-0.7716,-0.7718,-0.7725,-0.7729,-0.7729,-0.7737,-0.7741,-0.7749,-0.7752,-0.775,-0.7765,-0.777,-0.7781,-0.7784,-0.7788,-0.779,-0.7787,-0.7799,-0.78,-0.7801,-0.7804,-0.7805,-0.7789,-0.7789,-0.7789,-0.7789,0,-0.7721,-0.7728,-0.7734,-0.774,-0.7745,-0.7753,-0.7755,-0.776,-0.7761,-0.7763,-0.7773,-0.7778,-0.7786,-0.7789,-0.779,-0.78,-0.7799,-0.7798,-0.7795,-0.7802,-0.7805,-0.7807,-0.779,-0.779,-0.779,-0.779,0,0,-0.7735,-0.7742,-0.7744,-0.7746,-0.7753,-0.7758,-0.7765,-0.7772,-0.7776,-0.7782,-0.7787,-0.7798,-0.7796,-0.7801,-0.7803,-0.7807,-0.7815,-0.7806,-0.7806,-0.7807,-0.7826,-0.7826,-0.7827,-0.7815,-0.7815,-0.7816,-0.7825,0,-0.7745,-0.7758,-0.7759,-0.777,-0.7776,-0.7775,-0.7781,-0.7786,-0.7789,-0.7794,-0.7797,-0.7804,-0.7802,-0.7805,-0.781,-0.7813,-0.7819,-0.7812,-0.782,-0.7821,-0.7818,-0.7829,-0.783,-0.7838,-0.7826,-0.7826,-0.7826,0,-0.776,-0.7765,-0.7776,-0.778,-0.7783,-0.7788,-0.7794,-0.78,-0.7805,-0.7806,-0.7811,-0.7812,-0.7819,-0.7816,-0.7826,-0.7821,-0.7825,-0.7827,-0.7827,-0.7828,-0.7824,-0.7829,-0.7841,-0.7842,-0.7828,-0.7828,-0.7828,0,-0.7767,-0.7777,-0.7784,-0.7787,-0.7793,-0.7796,-0.7799,-0.7804,-0.7808,-0.7813,-0.7815,-0.7822,-0.7825,-0.783,-0.7833,-0.783,-0.7843,-0.784,-0.7844,-0.7844,-0.7846,-0.7846,-0.7858,-0.7849,-0.7849,-0.7849,-0.7849,0,-0.7779,-0.7785,-0.7788,-0.7792,-0.78,-0.7801,-0.7808,-0.7811,-0.7815,-0.782,-0.7821,-0.7826,-0.7829,-0.7835,-0.7837,-0.7844,-0.7846,-0.7848,-0.7848,-0.7847,-0.7847,-0.7849,-0.7848,-0.785,-0.785,-0.785,-0.7849,0,-0.7788,-0.779,-0.7798,-0.7802,-0.7804,-0.7809,-0.7813,-0.7817,-0.7819,-0.7826,-0.7828,-0.7831,-0.7838,-0.7841,-0.7849,-0.785,-0.7859,-0.7859,-0.7857,-0.7857,-0.7861,-0.786,-0.7874,-0.7876,-0.7867,-0.7867,-0.7867,0,-0.7795,-0.78,-0.7804,-0.7807,-0.781,-0.7815,-0.7819,-0.782,-0.7824,-0.783,-0.7833,-0.784,-0.7845,-0.7855,-0.7858,-0.7865,-0.7865,-0.7869,-0.7866,-0.7864,-0.7864,-0.7863,-0.7864,-0.787,-0.787,-0.787,-0.787,0,-0.7806,-0.7807,-0.7811,-0.7816,-0.782,-0.7824,-0.7828,-0.7831,-0.7833,-0.7837,-0.7843,-0.7847,-0.7855,-0.7861,-0.7867,-0.787,-0.787,-0.7871,-0.7872,-0.7871,-0.7869,-0.787,-0.7858,-0.7871,-0.7871,-0.7871,-0.7871,-0.7871,-0.7814,-0.7818,-0.7821,-0.7826,-0.7829,-0.7833,-0.7837,-0.7839,-0.7844,-0.785,-0.7851,-0.7857,-0.7862,-0.787,-0.7873,-0.7879,-0.7878,-0.788,-0.788,-0.788,-0.788,-0.7869,-0.788,-0.788,-0.788,-0.788,-0.788,0,-0.7825,-0.7827,-0.7831,-0.7836,-0.784,-0.784,-0.7844,-0.7847,-0.7852,-0.7856,-0.7861,-0.7868,-0.7873,-0.7877,-0.7883,-0.7886,-0.7886,-0.7888,-0.7887,-0.7888,-0.7881,-0.7879,-0.7887,-0.7887,-0.7887,-0.7887,-0.7887,-0.7887,-0.7831,-0.7837,-0.7838,-0.7846,-0.7848,-0.7854,-0.7856,-0.7859,-0.7862,-0.7869,-0.7874,-0.7876,-0.788,-0.7886,-0.7891,-0.7892,-0.7894,-0.7895,-0.7896,-0.7889,-0.7888,-0.7888,-0.7886,-0.7895,-0.7895,-0.7902,-0.7902,-0.7902]},{"header":{"parameterUnit":"m.s-1","parameterCategory":1,"la1":30.2991,"la2":30.254,"lo1":-89.0895,"lo2":-89.0444,"dy":0.0017,"dx":0.0017,"nx":28,"ny":28,"refTime":"2025-02-04T03:00:00:Z","depth":0,"parameterNumber":3,"parameterNumberName":"V-component_of_WINDS"},"data":[0,0,0,0,0,0,0,0,0,0,0,0,0,0,0,0,0,0,0,0,0,0,0,0,0,0,0,0,0,0,0,0,0,0,0,0,0,0,0,0,0,0,0,0,0,0,0,0,0,0,0,0,0,0,0,0,0,0,1.3016,1.3016,0,1.3064,1.3064,1.3065,1.3072,1.3071,1.3071,1.3071,1.3119,1.312,1.3122,0,0,0,0,0,0,0,0,0,0,0,0,0,1.2931,1.2932,1.3016,1.3016,1.3017,1.3064,1.3064,1.3065,1.3072,1.3071,1.3071,1.307,1.3118,1.312,1.3122,0,0,0,0,0,0,0,0,0,0,0,0,0,1.2972,1.2933,1.3016,1.3026,1.3028,1.3064,1.3064,1.3065,1.3072,1.3071,1.3071,1.307,1.3117,1.312,1.3122,1.3151,0,0,1.313,1.3131,0,0,0,0,0,0,0,0,1.297,1.2975,1.3024,1.3026,1.3027,1.3061,1.3052,1.3094,1.3072,1.3055,1.3071,1.307,1.31,1.3104,1.3114,1.3153,1.3155,1.313,1.3132,1.3133,1.3134,0,0,0,0,0,0,0,1.2967,1.2973,1.3035,1.3025,1.3027,1.3029,1.3034,1.306,1.3081,1.3057,1.3057,1.3063,1.3101,1.3112,1.3115,1.3156,1.313,1.3133,1.3134,1.3135,1.3223,1.3224,0,0,0,0,0,0,1.2962,1.2971,1.3033,1.3036,1.2996,1.3031,1.3036,1.3051,1.308,1.3084,1.3063,1.3063,1.3108,1.3113,1.3117,1.3155,1.3133,1.3135,1.3137,1.3222,1.3223,1.3224,0,0,0,0,0,0,1.296,1.2968,1.3031,1.3004,1.3012,1.3033,1.3049,1.3052,1.3063,1.3085,1.3089,1.3071,1.3108,1.3114,1.3143,1.3156,1.3136,1.3139,1.3222,1.3223,1.3224,1.3228,0,0,0,0,0,0,1.2958,1.2967,1.2978,1.3004,1.3013,1.3056,1.305,1.3054,1.3068,1.3068,1.3094,1.3097,1.3107,1.3139,1.3146,1.3159,1.3141,1.322,1.3222,1.3224,1.3227,1.3229,1.3232,0,0,0,0,0,1.2955,1.2976,1.2978,1.2986,1.3028,1.3057,1.3063,1.3074,1.3069,1.308,1.3095,1.3096,1.3153,1.3142,1.315,1.3164,1.322,1.3222,1.3223,1.3226,1.3229,1.3231,0,0,0,0,0,0,1.2951,1.298,1.2982,1.3013,1.3033,1.3058,1.3073,1.3077,1.3098,1.3097,1.311,1.3116,1.3145,1.3157,1.3144,1.3194,1.3186,1.319,1.3186,1.3189,1.3191,1.3188,1.3143,0,0,0,0,0,1.2953,1.2975,1.2999,1.3024,1.3034,1.3052,1.3065,1.3073,1.3093,1.3101,1.3118,1.3138,1.316,1.3175,1.3197,1.3228,1.3235,1.3242,1.3244,1.3246,1.3249,1.3269,1.3273,1.323,1.323,1.323,0,0,1.2959,1.2978,1.2991,1.3024,1.304,1.3063,1.3059,1.3082,1.3099,1.3105,1.3134,1.3147,1.317,1.3202,1.3216,1.3213,1.3262,1.3248,1.325,1.3252,1.3271,1.3275,1.3279,1.3232,1.3232,1.3231,0,0,1.2982,1.2997,1.3021,1.3037,1.3062,1.3074,1.308,1.3105,1.3114,1.3144,1.3149,1.317,1.3208,1.3225,1.3238,1.3269,1.3272,1.3275,1.3288,1.3307,1.331,1.3313,1.3326,1.333,1.3278,1.3278,1.3278,0,1.2986,1.302,1.3032,1.3057,1.3072,1.3078,1.3103,1.3118,1.3148,1.3159,1.3154,1.3204,1.322,1.3256,1.3264,1.3274,1.3282,1.3273,1.3309,1.3312,1.3315,1.3327,1.3332,1.3279,1.3279,1.3279,1.3279,0,1.3025,1.3049,1.3065,1.3095,1.3112,1.3136,1.3152,1.3168,1.3174,1.3187,1.3218,1.3237,1.3264,1.3273,1.3279,1.3311,1.3308,1.3306,1.3298,1.3319,1.3331,1.3336,1.3279,1.3279,1.3279,1.3279,0,0,1.3046,1.3084,1.309,1.3105,1.3133,1.3152,1.3176,1.3204,1.3218,1.3238,1.326,1.3293,1.3292,1.3307,1.3315,1.3332,1.3357,1.3328,1.3328,1.3334,1.3396,1.3399,1.3404,1.3359,1.336,1.336,1.3395,0,1.3073,1.3119,1.3131,1.3169,1.3192,1.32,1.3221,1.3241,1.3254,1.3276,1.3289,1.3313,1.3309,1.3319,1.3335,1.3351,1.337,1.3348,1.3381,1.3382,1.3376,1.341,1.3413,1.3444,1.3399,1.34,1.3401,0,1.3111,1.3134,1.3175,1.3202,1.3213,1.3232,1.3259,1.3279,1.3302,1.331,1.3329,1.3335,1.3362,1.3352,1.339,1.3375,1.3389,1.3399,1.34,1.3405,1.3394,1.3417,1.3454,1.346,1.3408,1.3407,1.3407,0,1.3125,1.3166,1.3196,1.3208,1.324,1.3254,1.3268,1.3291,1.3307,1.333,1.3341,1.3367,1.3381,1.3401,1.3415,1.3406,1.3452,1.3443,1.3461,1.3461,1.3471,1.3471,1.3513,1.3477,1.3477,1.3477,1.3477,0,1.3155,1.318,1.3203,1.3222,1.3251,1.3265,1.3293,1.3308,1.3328,1.335,1.3357,1.3378,1.3394,1.3417,1.3428,1.3459,1.3465,1.3473,1.3476,1.3473,1.3472,1.3484,1.3482,1.3479,1.3478,1.3478,1.3478,0,1.3175,1.3192,1.3226,1.3254,1.3262,1.3282,1.3306,1.3325,1.3338,1.3366,1.3374,1.3394,1.3422,1.3438,1.3472,1.3479,1.3515,1.3515,1.3507,1.3509,1.3527,1.3526,1.3579,1.3587,1.3544,1.3545,1.3545,0,1.3194,1.3214,1.3245,1.3261,1.3275,1.33,1.3317,1.3332,1.3349,1.3378,1.3394,1.3422,1.3446,1.349,1.3508,1.3535,1.3538,1.3555,1.3542,1.3539,1.354,1.354,1.3543,1.3557,1.3558,1.3558,1.3558,0,1.3227,1.3234,1.3259,1.3287,1.3307,1.3329,1.3351,1.3364,1.3382,1.3402,1.3431,1.3449,1.3485,1.3514,1.3542,1.3557,1.3561,1.3562,1.3568,1.3566,1.3562,1.3567,1.3515,1.3561,1.3561,1.356,1.356,1.356,1.3248,1.3267,1.3292,1.332,1.3338,1.336,1.338,1.3396,1.342,1.3452,1.3458,1.349,1.3514,1.3553,1.3568,1.3593,1.359,1.3598,1.3601,1.3603,1.3605,1.3557,1.3598,1.3598,1.3598,1.3598,1.3598,0,1.3283,1.33,1.3325,1.3357,1.3379,1.3381,1.3406,1.3424,1.3452,1.3474,1.3498,1.3532,1.356,1.3581,1.361,1.3626,1.3629,1.3633,1.3633,1.3637,1.3605,1.3598,1.3631,1.3631,1.3631,1.3631,1.3631,1.3631,1.3303,1.3336,1.3347,1.339,1.3406,1.3438,1.3452,1.3472,1.349,1.3529,1.3553,1.3566,1.3588,1.3619,1.3646,1.3651,1.3662,1.3667,1.3673,1.3642,1.3639,1.3636,1.3629,1.3669,1.3669,1.3704,1.3704,1.3704]}]]